Погода в Пиетарсаари

Финляндия     63°40′42″N   22°43′09″E
темп.,
°C
ветер,
м/с
пор.,
м/с
влажн.,
%
обл.,
%
осадки,
мм/ч
давл.,
гПа
погр.,
м
27 ноября, сб
сб2723:00−4сз55645 0.0 1002682
02:00−4зсз33615 0.0 1003707
05:00−4зюз23626 0.0 1005583
08:00−5ююз437717 0.0 1007400
11:00−5ю448028 0.0 1008268
14:00−5ююв447889 0.0 1009246
17:00−6ююв55779 0.0 1009239
20:00−6ююв567987 0.0 1009221
28 ноября, вс
вс2823:00−6ююв568020 0.0 1009221
02:00−7ююв458489 0.0 1009214
05:00−7юв448677 0.0 1009203
08:00−7юв448490 0.0 1009207
11:00−7ююв4582100 0.0 1010211
14:00−6юв3377100 0.0 1010218
17:00−6юв4573100 0.0 1010221
20:00−6ююв4578100 0.0 1011223
29 ноября, пн
пн2923:00−6ююв5677100 0.0 1012229
02:00−6ююв5677100 0.0 1011243
05:00−5ююв6779100 0.0 1011275
08:00−5ююв5781100 0.0 1011315
11:00−5ююв6882100 0.0 1011353
14:00−5юв5780100 0.0 1009365
17:00−6вюв568599 0.0 1008337
20:00−7вюв5681100 0.0 1006336
30 ноября, вт
вт3023:00−7в56819 0.0 1005355
02:00−7всв678212 0.0 1002412
05:00−6всв79799 0.0 1000545
08:00−5св8107843 0.0 998745
11:00−5св9117646 0.0 996849
14:00−4св9107094 0.0 9941171
17:00−3св9106797 0.1 9931420
20:00−2ссв91063100 0.2 9931685
1 декабря, ср
ср123:00−2ссв111161100 0.1 9921756
02:00−2с121262100 0.2 9921879
05:00−3ссз121262100 0.1 9931763
08:00−3ссз111165100 0.2 9931423
11:00−4сз9106684 0.1 9931267
14:00−4сз91074100 0.1 9921312
17:00−5зсз8875100 0.2 9911158
20:00−4зсз7676100 0.3 9901020